FREGAT R/B, 45255

Orbit data source: Space-Track

FREGAT R/B, 45255 is space debris in HEO originally from a launch on Thu, 20 Feb 2020 UTC launched from the Plesetsk Missile And Space Complex (PKMTR). Debris objects in space refer to the collection of defunct objects orbiting the Earth. Examples of debris include non-operational satellites, rocket bodies, and fragments generated from explosions, collisions, or faulty payload assembly.

Loading next visibility...
Identifier
45255, 2020-015B
Orbit
HEO
Country
Flag of CISCIS
Related business
Manufacturer
Lavochkin
Mission
Spacecraft
Bus & Motor
FREGAT, Unknown motor
Mass
1,000 kg wet, 1,000 kg dry
Launch date (UTC)
2020-02-20 (6 years ago)
Launch vehicle
Unknown
Launch site
Plesetsk Missile And Space Complex (PKMTR)
Object type
Payload
Rocket body
Debris
Shape & HBR
Cyl, 1.7 m
Radar Cross Section
8.354 m², Large (>1 m²)

Expand to show TLE details & history
Last TLE update: 1 week ago

TLE from 1 week ago
0 FREGAT R/B
1 45255U 20015B   26165.55682081  .00001108  00000-0  00000-0 0  9994
2 45255  65.6668 313.2684 6894994 278.9380  14.6967  1.99794318 46108
Epoch: 2026-06-14T13:21Z
TLE epoch observation values (Epoch: 2026-06-14T13:21:49.317Z)
Latitude
0.0002°
Longitude
-150.1137°
Altitude
6,219.02 km
Speed
6.951 km/s
True Right ascension
20h 52m 47s
True Declination
0° 00' 01"
Sunlit
Object was in daylight at epoch
Visualization orbit readout
Latitude
Unknown
Longitude
Unknown
Altitude
Unknown
Speed
Unknown
Apparent Right ascension
Unknown
Apparent Declination
Unknown
Sunlit
N/A
Visualization observer readout
Local Sidereal Time
21:35:24
Azimuth
Unknown
Elevation
Unknown
Doppler factor
Unknown
Orbital elements
Apogee altitude
38,608.892 km
Perigee altitude
1,889.696 km
Semi-major axis
26,627.431 km
Eccentricity
0.6895
Inclination
65.6668°
RAAN
313.2684°
Arg. of periapsis
278.938°
True anomaly
80.95613°
Mean anomaly
14.6967°
Eccentric anomaly
40.19106°
Mean motion
0.49952 °/min
Orbital period
720.7 mins
BSTAR
0
Loading maneuver chart data...
Computing Atmospheric mass density...
Loading historical data...
Loading historical data...
Loading historical data...
Loading historical data...
Loading historical data...
Loading historical data...
Loading historical data...
Other satellites on launch #15 in the year 2020 (2020-02-20 UTC)

Documentation

Showing up to 5 results
|